sat.trackr.live / text

‹ back to catalog

T.MICROSAT-1

NORAD 66766 · 2025-276DE

PAYLOAD ACTIVE UNKNOWN

§ Identity

Operator
Country
ROC
Launch date
2025-11-28
Launch site
AFWTR
Launch vehicle
Mass (kg)
RCS (m²)

External: N2YO · Heavens-Above · Gunter

§ Orbital elements

Epoch: 2026-05-25T02:40:08.450688Z

Period
94.70 min
Inclination
97.4165°
Eccentricity
0.0001183
Mean motion
15.20523691 rev/d
Perigee alt
503.4 km
Apogee alt
505.1 km
Semi-major
6,882.4 km
B*
2.3354e-4
RAAN
219.2042°
Arg perigee
109.8191°
Mean anomaly
250.3172°
Rev number
2,693

§ Raw data

T.MICROSAT-11 66766U 25276DE  26145.11120892  .00005039  00000+0  23354-3 0  99912 66766  97.4165 219.2042 0001183 109.8191 250.3172 15.20523691 26931

JSON: /api/v1/satellites/66766 · /tle

For live sub-satellite position, see the globe view (requires WebGL).

§ Visibility from observer

Set your observer location to see the next 7 days of passes ≥ 10°. The values pass through the URL so the page stays shareable.

No JS? Fill the form by hand. The geolocation button needs JavaScript.